This is the latest recevied weather packets stored in our database for station/object YO6KXQ-10. If no packets are shown the sender has not sent any weather packets the latest 10 day(s).
| Time | Temp. | Humidity | Pressure | Rain* | Wind** | Luminosity | Snow |
|---|---|---|---|---|---|---|---|
| 1777802464 | 15° C | 40% | 1025.7 hPa | - | - | - | - |
| 1777800424 | 15° C | 40% | 1026 hPa | - | - | - | - |
| 1777799404 | 15° C | 39% | 1026.1 hPa | - | - | - | - |
| 1777798383 | 15° C | 39% | 1026.2 hPa | - | - | - | - |
| 1777797363 | 15° C | 37% | 1026.2 hPa | - | - | - | - |
| 1777796343 | 15° C | 34% | 1026.3 hPa | - | - | - | - |
| 1777795317 | 15° C | 45% | 1026.4 hPa | - | - | - | - |
| 1777794297 | 15° C | 53% | 1026.4 hPa | - | - | - | - |
| 1777793277 | 15° C | 53% | 1026.4 hPa | - | - | - | - |
| 1777792256 | 15° C | 52% | 1026.3 hPa | - | - | - | - |
| 1777791236 | 15° C | 53% | 1026.4 hPa | - | - | - | - |
| 1777790216 | 14.44° C | 53% | 1026.3 hPa | - | - | - | - |
| 1777789196 | 14.44° C | 53% | 1026.3 hPa | - | - | - | - |
| 1777788176 | 14.44° C | 53% | 1026.4 hPa | - | - | - | - |
| 1777787156 | 15° C | 53% | 1026.3 hPa | - | - | - | - |
| 1777786135 | 15° C | 53% | 1026.3 hPa | - | - | - | - |
| 1777785115 | 15° C | 53% | 1026.3 hPa | - | - | - | - |
| 1777784095 | 15° C | 53% | 1026.3 hPa | - | - | - | - |
| 1777783075 | 14.44° C | 54% | 1026.1 hPa | - | - | - | - |
| 1777782055 | 14.44° C | 54% | 1026 hPa | - | - | - | - |
| 1777781035 | 14.44° C | 54% | 1025.8 hPa | - | - | - | - |
| 1777780014 | 14.44° C | 54% | 1025.8 hPa | - | - | - | - |
| 1777778994 | 14.44° C | 54% | 1025.7 hPa | - | - | - | - |
| 1777777974 | 14.44° C | 54% | 1025.6 hPa | - | - | - | - |
| 1777776954 | 14.44° C | 54% | 1025.4 hPa | - | - | - | - |
* Rain since midnight (hover to see other rain measurements)
** Current wind speed in m/s (hover to see current wind gust speed)